This is the latest recevied weather packets stored in our database for station/object WX6HNX-12. If no packets are shown the sender has not sent any weather packets the latest 10 day(s).
| Time | Temp. | Humidity | Pressure | Rain* | Wind** | Luminosity | Snow |
|---|---|---|---|---|---|---|---|
| 1777651258 | 23.33° C | 46% | 1014 hPa | 0 mm | - | - | - |
| 1777650957 | 23.33° C | 46% | 1014 hPa | 0 mm | - | - | - |
| 1777650657 | 23.33° C | 46% | 1014 hPa | 0 mm | - | - | - |
| 1777650359 | 23.33° C | 46% | 1014 hPa | 0 mm | - | - | - |
| 1777650057 | 23.33° C | 47% | 1014 hPa | 0 mm | - | - | - |
| 1777649758 | 23.33° C | 47% | 1013.9 hPa | 0 mm | - | - | - |
| 1777649458 | 23.33° C | 47% | 1014 hPa | 0 mm | - | - | - |
| 1777649157 | 23.33° C | 47% | 1014 hPa | 0 mm | - | - | - |
| 1777648662 | 22.78° C | 47% | 1014 hPa | 0 mm | - | - | - |
| 1777648361 | 22.78° C | 48% | 1014 hPa | 0 mm | - | - | - |
| 1777648061 | 22.78° C | 48% | 1014 hPa | 0 mm | - | - | - |
| 1777647451 | 22.78° C | 49% | 1014 hPa | 0 mm | - | - | - |
| 1777647145 | 22.22° C | 49% | 1013.9 hPa | 0 mm | - | - | - |
| 1777646851 | 22.22° C | 49% | 1013.9 hPa | 0 mm | - | - | - |
| 1777646248 | 21.11° C | 50% | 1013.8 hPa | 0 mm | - | - | - |
| 1777645645 | 21.11° C | 53% | 1013.8 hPa | 0 mm | - | - | - |
| 1777645351 | 20.56° C | 54% | 1013.7 hPa | 0 mm | - | - | - |
| 1777644452 | 19.44° C | 57% | 1013.6 hPa | 0 mm | - | - | - |
| 1777643551 | 18.33° C | 59% | 1013.6 hPa | 0 mm | - | - | - |
| 1777643245 | 18.33° C | 60% | 1013.7 hPa | 0 mm | - | - | - |
| 1777642345 | 17.78° C | 61% | 1013.5 hPa | 0 mm | - | - | - |
| 1777641750 | 17.22° C | 61% | 1013.5 hPa | 0 mm | - | - | - |
| 1777641444 | 17.78° C | 60% | 1013.5 hPa | 0 mm | - | - | - |
| 1777640321 | 17.78° C | 59% | 1013.2 hPa | 0 mm | - | - | - |
| 1777640022 | 18.33° C | 59% | 1013.2 hPa | 0 mm | - | - | - |
* Rain latest hour (hover to see other rain measurements)
** Current wind speed in m/s (hover to see current wind gust speed)